TimeMST,TemperatureF,Dew PointF,Humidity,Sea Level PressureIn,VisibilityMPH,Wind Direction,Wind SpeedMPH,Gust SpeedMPH,PrecipitationIn,Events,Conditions,WindDirDegrees,DateUTC
12:00 AM,-9999,-9999,N/A,-9999,-9999.0,North,-9999.0,-,N/A,,Unknown,0,2011-10-01 07:00:00
12:56 AM,66.9,42.1,40,29.96,10.0,SE,10.4,-,N/A,,Clear,140,2011-10-01 07:56:00
1:56 AM,64.9,42.1,43,29.96,10.0,SSE,6.9,-,N/A,,Clear,150,2011-10-01 08:56:00
2:56 AM,66.0,42.1,42,29.96,10.0,SSE,8.1,-,N/A,,Clear,150,2011-10-01 09:56:00
3:56 AM,64.0,42.1,45,29.96,10.0,SSE,8.1,-,N/A,,Mostly Cloudy,150,2011-10-01 10:56:00
4:56 AM,63.0,42.1,46,29.97,10.0,NNE,3.5,-,N/A,,Clear,30,2011-10-01 11:56:00
5:56 AM,64.0,42.1,45,29.99,10.0,Calm,Calm,-,N/A,,Partly Cloudy,0,2011-10-01 12:56:00
6:55 AM,66.2,42.8,43,30.01,10.0,ESE,3.5,-,N/A,,Mostly Cloudy,110,2011-10-01 13:55:00
7:55 AM,71.6,44.6,38,29.98,10.0,SSE,9.2,-,N/A,,Mostly Cloudy,150,2011-10-01 14:55:00
8:55 AM,75.2,44.6,34,30.02,10.0,SE,12.7,-,N/A,,Scattered Clouds,130,2011-10-01 15:55:00
9:55 AM,77.0,44.6,32,30.02,10.0,East,10.4,-,N/A,,Mostly Cloudy,80,2011-10-01 16:55:00
10:55 AM,80.6,44.6,28,30.01,10.0,ESE,8.1,-,N/A,,Mostly Cloudy,120,2011-10-01 17:55:00
11:55 AM,82.4,44.6,26,29.99,10.0,Variable,4.6,-,N/A,,Mostly Cloudy,0,2011-10-01 18:55:00
12:56 PM,82.0,45.0,27,29.96,10.0,Calm,Calm,-,N/A,,Partly Cloudy,0,2011-10-01 19:56:00
1:56 PM,84.0,44.1,25,29.93,10.0,Calm,Calm,-,N/A,,Overcast,0,2011-10-01 20:56:00
2:14 PM,82.4,44.6,26,30.12,10.0,Variable,3.5,-,N/A,Thunderstorm,Thunderstorm,0,2011-10-01 21:14:00
2:24 PM,82.4,44.6,26,30.12,10.0,South,6.9,-,N/A,Thunderstorm,Thunderstorm,170,2011-10-01 21:24:00
2:28 PM,82.4,44.6,26,30.12,10.0,South,6.9,-,N/A,Thunderstorm,Thunderstorm,170,2011-10-01 21:28:00
2:45 PM,82.4,44.6,26,30.12,10.0,SSW,4.6,-,N/A,,Mostly Cloudy,200,2011-10-01 21:45:00
2:56 PM,82.0,44.1,26,29.92,10.0,SW,5.8,-,N/A,Thunderstorm,Thunderstorm,230,2011-10-01 21:56:00
3:56 PM,79.0,44.1,29,29.96,10.0,South,8.1,-,N/A,Thunderstorm,Thunderstorm,180,2011-10-01 22:56:00
4:30 PM,73.4,51.8,47,30.14,10.0,SW,10.4,-,0.00,Rain,Light Rain,220,2011-10-01 23:30:00
4:56 PM,73.9,50.0,43,29.97,10.0,NE,8.1,-,0.00,,Scattered Clouds,50,2011-10-01 23:56:00
5:39 PM,73.4,46.4,38,30.13,10.0,SW,6.9,-,N/A,Thunderstorm,Thunderstorm,220,2011-10-02 00:39:00
5:54 PM,73.4,48.2,41,30.14,10.0,SSW,5.8,-,N/A,,Clear,210,2011-10-02 00:54:00
5:56 PM,73.0,46.9,39,29.96,10.0,SSW,5.8,-,N/A,,Clear,210,2011-10-02 00:56:00
6:56 PM,70.0,48.0,46,29.99,10.0,NNE,6.9,-,N/A,,Partly Cloudy,20,2011-10-02 01:56:00
7:56 PM,69.1,48.9,49,29.99,10.0,South,5.8,-,N/A,,Mostly Cloudy,190,2011-10-02 02:56:00
8:56 PM,69.1,48.9,49,30.00,10.0,South,4.6,-,N/A,,Mostly Cloudy,180,2011-10-02 03:56:00
9:56 PM,70.0,48.9,47,30.01,10.0,South,5.8,-,N/A,,Mostly Cloudy,170,2011-10-02 04:56:00
10:56 PM,68.0,50.0,52,30.01,10.0,Calm,Calm,-,0.00,,Mostly Cloudy,0,2011-10-02 05:56:00
11:56 PM,64.9,55.9,73,30.01,10.0,WSW,3.5,-,N/A,,Clear,240,2011-10-02 06:56:00